This demonstration page uses our WeatherBlox Daily Observations layout. Learn more.

Left ArrowRight Arrow

Hourly Observations for December 7, 2022

Temp ( °F °C ) Dew Point ( °F °C ) Humidity (%) Winds ( mph kmh ) Pressure ( in mb ) Visibility ( mi km ) Precip ( " mm )
12:53 am 00:53 Cloudy with Light Rain 62 16.7 59 15 90 90 Calm 30.04 1017 10 16 0.01 0.13
1:53 am 01:53 Cloudy with Light Rain 61 16.1 60 15.6 97 97 NW 7 11 30.06 1018 9 14 0.02 0.51
2:53 am 02:53 Cloudy with Light Rain 62 16.7 61 16.1 96 96 Calm 30.06 1018 10 16 0.01 0.25
3:25 am 03:25 Cloudy 62 16.7 60 15.6 93 93 NW 6 9 30.07 1018 10 16 0.02 0.51
3:34 am 03:34 Cloudy 61 16.1 60 15.6 97 97 NW 6 9 30.08 1018 10 16 0.02 0.51
3:53 am 03:53 Cloudy with Light Rain 61 16.1 61 16.1 100 100 Calm 30.06 1018 10 16 0.02 0.51
4:00 am 04:00 Cloudy with Light Rain 62 16.7 61 16.1 96 96 Calm 30.07 1018 10 16 0.01 0.13
4:26 am 04:26 Cloudy with Light Rain 63 17.2 62 16.7 97 97 SE 5 7 30.06 1018 9 14 0.01 0.13
4:53 am 04:53 Cloudy 64 17.8 63 17.2 96 96 Calm 30.04 1017 8 13 0.01 0.13
5:53 am 05:53 Cloudy 63 17.2 62 16.7 97 97 Calm 30.07 1018 8 13 0.00 0.00
6:08 am 06:08 Cloudy with Mist and Fog 63 17.2 63 17.2 100 100 Calm 30.08 1019 5 8 0.00 0.00
6:53 am 06:53 Cloudy with Mist and Fog 64 17.8 63 17.2 96 96 Calm 30.10 1019 5 8 0.00 0.00
7:53 am 07:53 Cloudy with Mist and Fog 63 17.2 61 16.1 93 93 NW 13 20 30.14 1021 5 8 0.00 0.00
8:33 am 08:33 Cloudy with Light Rain 64 17.8 62 16.7 93 93 ESE 8 13 30.13 1020 2 3 0.01 0.13
8:46 am 08:46 Cloudy with Light Rain 64 17.8 64 17.8 100 100 Calm 30.13 1020 3 4 0.01 0.25
9:00 am 09:00 Cloudy with Mist and Fog 65 18.3 64 17.8 97 97 Calm 30.15 1021 3 5 0.01 0.13
9:27 am 09:27 Cloudy with Light Rain 66 18.9 66 18.9 100 100 Calm 30.14 1021 5 8 0.01 0.25
9:50 am 09:50 Cloudy with Light Rain 68 20 66 19 94 94 SSE 8 13 30.14 1021 5 8 0.01 0.25
9:53 am 09:53 Cloudy with Light Rain 68 20 67 19.4 96 96 SSE 8 13 30.14 1021 5 8 0.01 0.25
10:34 am 10:34 Cloudy with Mist and Fog 70 21.1 68 20 93 93 S 7 11 30.15 1021 5 8 0.01 0.13
10:53 am 10:53 Cloudy with Mist and Fog 70 21.1 68 20 93 93 S 6 9 30.14 1021 5 8 0.01 0.13
11:53 am 11:53 Cloudy 73 22.8 68 20 84 84 S 10 17 30.13 1020 7 11 0.00 0.00
12:53 pm 12:53 Cloudy with Haze 75 23.9 68 20 79 79 SSW 5 7 30.11 1020 6 10 0.00 0.00
1:53 pm 13:53 Cloudy with Light Rain 75 23.9 67 19.4 76 76 SW 8 13 30.11 1020 7 11 0.01 0.13
2:33 pm 14:33 Cloudy with Light Rain 65 18.3 61 16.1 87 87 NW 12 19 30.12 1020 6 10 0.01 0.13
2:53 pm 14:53 Cloudy with Mist and Fog 66 18.9 62 16.7 87 87 NW 8 13 30.11 1020 5 8 0.01 0.13
3:19 pm 15:19 Mostly Cloudy with Haze 68 20 62 16.7 81 81 N 6 9 30.12 1020 6 10 0.00 0.00
3:53 pm 15:53 Mostly Cloudy with Haze 71 21.7 63 17.2 76 76 Calm 30.11 1020 6 10 0.00 0.00
4:53 pm 16:53 Mostly Cloudy with Haze 70 21.1 64 17.8 81 81 VRB 7 11 30.11 1020 6 10 0.00 0.00
5:53 pm 17:53 Cloudy 67 19.4 62 16.7 84 84 NW 7 11 30.12 1020 8 13 0.00 0.00
6:53 pm 18:53 Cloudy 65 18.3 61 16.1 87 87 NW 8 13 30.13 1020 8 13 0.00 0.00
7:53 pm 19:53 Mostly Cloudy with Mist and Fog 63 17.2 60 15.6 90 90 NNW 7 11 30.14 1021 5 8 0.00 0.00
8:53 pm 20:53 Cloudy with Mist and Fog 63 17.2 61 16.1 93 93 NNW 6 9 30.14 1021 4 6 0.00 0.00
9:53 pm 21:53 Mostly Cloudy with Mist and Fog 63 17.2 61 16.1 93 93 W 3 6 30.14 1021 3 5 0.00 0.00
10:25 pm 22:25 Mostly Cloudy with Mist and Fog 61 16.1 59 15 93 93 WNW 7 11 30.17 1022 2 3 0.00 0.00
10:35 pm 22:35 Cloudy with Mist and Fog 60 15.6 59 15 96 96 NW 7 11 30.16 1021 1 1 0.00 0.00
10:53 pm 22:53 Cloudy with Mist and Fog 60 15.6 59 15 96 96 VRB 3 6 30.14 1021 1 1 0.00 0.00
11:15 pm 23:15 Cloudy with Mist and Fog 60 15.6 59 15 96 96 VRB 3 6 30.15 1021 1 2 0.00 0.00
11:53 pm 23:53 Cloudy with Mist and Fog 60 15.6 59 15 96 96 Calm 30.13 1020 1 2 0.00 0.00

Powered by AerisWeather